TAR708 DTTA-DAOO

Flight info

Callsign TAR708
Flight time N/A
Altitude 36000
Route KEMIR2A KEMIR UM978 MORJA UA411 BNA UA31 CHE UA411 MOS
Aircraft A320/M-SDE3FGHIRWY/LB1

Departure

Time N/A
Airport Tunis Carthage International Airport (DTTA)

Arrival

Time 2026-05-07 23:08
Airport Oran Es-Sénia (Ahmed Ben Bella) International Airport (DAOO)
Time Latitude Longitude Altitude Speed Heading
2026-05-07 23:08 35.61932 -0.61133 303 ft 0 kts 142°
2026-05-07 23:10 35.61931 -0.61131 303 ft 1 kts 131°
2026-05-07 23:10 35.61957 -0.61135 307 ft 12 kts 318°
2026-05-07 23:10 35.61989 -0.61278 303 ft 22 kts 246°
2026-05-07 23:11 35.62030 -0.61431 305 ft 19 kts 268°
2026-05-07 23:11 35.61984 -0.61590 305 ft 20 kts 248°
2026-05-07 23:11 35.61922 -0.61751 303 ft 21 kts 244°
2026-05-07 23:11 35.61865 -0.61922 303 ft 23 kts 248°
2026-05-07 23:12 35.61802 -0.62108 302 ft 24 kts 249°
2026-05-07 23:12 35.61841 -0.62295 302 ft 24 kts 319°
2026-05-07 23:12 35.61994 -0.62330 303 ft 24 kts 33°
2026-05-07 23:12 35.62138 -0.61994 304 ft 78 kts 66°
2026-05-07 23:13 35.62433 -0.61141 309 ft 140 kts 67°
2026-05-07 23:13 35.62825 -0.59990 883 ft 146 kts 66°
2026-05-07 23:13 35.63199 -0.58776 1463 ft 159 kts 77°
2026-05-07 23:13 35.63309 -0.57389 2139 ft 167 kts 90°
2026-05-07 23:14 35.63276 -0.55953 2590 ft 173 kts 90°
2026-05-07 23:14 35.63243 -0.54413 2867 ft 189 kts 91°
2026-05-07 23:14 35.63185 -0.52739 3232 ft 202 kts 91°
2026-05-07 23:14 35.63154 -0.50934 3549 ft 222 kts 89°
2026-05-07 23:15 35.63187 -0.48938 3885 ft 246 kts 88°
2026-05-07 23:15 35.63244 -0.46739 4304 ft 267 kts 87°
2026-05-07 23:15 35.63299 -0.44412 5007 ft 277 kts 88°
2026-05-07 23:15 35.63347 -0.42020 5759 ft 283 kts 88°
2026-05-07 23:16 35.63385 -0.39573 6516 ft 289 kts 89°
2026-05-07 23:16 35.63415 -0.37072 7237 ft 295 kts 89°
2026-05-07 23:16 35.63443 -0.34522 7964 ft 302 kts 89°
2026-05-07 23:16 35.63466 -0.31918 8688 ft 308 kts 90°
2026-05-07 23:17 35.63487 -0.29257 9405 ft 314 kts 90°
2026-05-07 23:17 35.63505 -0.26536 10101 ft 321 kts 90°
2026-05-07 23:17 35.63521 -0.23724 10438 ft 340 kts 90°
2026-05-07 23:17 35.63541 -0.20710 10635 ft 363 kts 90°
2026-05-07 23:18 35.63564 -0.17555 11115 ft 373 kts 90°
2026-05-07 23:18 35.63586 -0.14341 11758 ft 378 kts 90°
2026-05-07 23:18 35.63606 -0.11132 12416 ft 383 kts 90°
2026-05-07 23:18 35.63628 -0.07839 13078 ft 388 kts 90°
2026-05-07 23:19 35.63649 -0.04506 13741 ft 392 kts 90°
2026-05-07 23:19 35.63668 -0.01137 14330 ft 396 kts 90°
2026-05-07 23:19 35.63685 0.02267 14899 ft 400 kts 90°
2026-05-07 23:19 35.63704 0.05702 15470 ft 404 kts 90°
2026-05-07 23:20 35.63723 0.09178 16047 ft 408 kts 90°
2026-05-07 23:20 35.63742 0.12680 16624 ft 412 kts 90°
2026-05-07 23:20 35.63757 0.16213 17199 ft 415 kts 90°
2026-05-07 23:20 35.63766 0.19777 17764 ft 419 kts 90°
2026-05-07 23:21 35.63775 0.23381 18319 ft 423 kts 90°
2026-05-07 23:21 35.63819 0.27024 18802 ft 427 kts 86°
2026-05-07 23:21 35.64277 0.30649 19272 ft 431 kts 75°
2026-05-07 23:21 35.65248 0.34143 19733 ft 434 kts 64°
2026-05-07 23:22 35.66704 0.37398 20209 ft 435 kts 54°
2026-05-07 23:22 35.68368 0.40522 20680 ft 439 kts 54°
2026-05-07 23:22 35.70047 0.43692 21152 ft 443 kts 54°